Location: ???? ?????
(30.0052°N, 31.2891°E)
Time: 19:32:19
(UTC+00:00)

Cosmos 1331 Rocket - Pass Details

Date: 04 October 2022
Orbit: 748 x 778 km, 74.0° (Epoch: 06 December)

Event Time Altitude Azimuth Distance (km) Brightness Sun altitude
Exits shadow 02:56:45 17° 264° (W) 1,825 5.3 -12.3°
Maximum altitude 02:58:42 21° 294° (WNW) 1,645 5.2 -11.9°
Drops below altitude 10° 03:02:32 10° 342° (NNW) 2,270 6.3 -11.1°
Sets 03:05:28 0° 359° (N) 3,200 7.2 -10.4°
